Time,TemperatureF,DewpointF,PressureIn,WindDirection,WindDirectionDegrees,WindSpeedMPH,WindSpeedGustMPH,Humidity,HourlyPrecipIn,Conditions,Clouds,dailyrainin,SoftwareType,DateUTC
2013-03-05 00:00:00,32.4,21.6,29.88,NW,304,6.0,6.0,64,0.00,,OVC032,0.00,VWS V14.01,2013-03-05 05:00:00,
2013-03-05 00:05:00,32.5,21.3,29.87,NW,314,0.0,5.0,63,0.00,,OVC032,0.00,VWS V14.01,2013-03-05 05:05:00,
2013-03-05 00:10:00,32.5,21.3,29.87,NW,316,2.0,7.0,63,0.00,,OVC032,0.00,VWS V14.01,2013-03-05 05:10:00,
2013-03-05 00:15:00,32.5,21.3,29.87,NW,322,3.0,3.0,63,0.00,,OVC032,0.00,VWS V14.01,2013-03-05 05:15:00,
2013-03-05 00:20:00,32.5,21.3,29.88,West,278,6.0,6.0,63,0.00,,OVC032,0.00,VWS V14.01,2013-03-05 05:20:00,
2013-03-05 00:25:00,32.5,21.3,29.88,NW,316,0.0,5.0,63,0.00,,OVC032,0.00,VWS V14.01,2013-03-05 05:25:00,
2013-03-05 00:30:00,32.5,21.3,29.88,NNW,335,0.0,7.0,63,0.00,,OVC032,0.00,VWS V14.01,2013-03-05 05:30:00,
2013-03-05 00:35:00,32.5,21.3,29.88,North,0,5.0,10.0,63,0.00,,OVC030,0.00,VWS V14.01,2013-03-05 05:35:00,
2013-03-05 00:40:00,32.5,21.3,29.88,NW,321,0.0,1.0,63,0.00,,OVC030,0.00,VWS V14.01,2013-03-05 05:40:00,
2013-03-05 00:45:00,32.5,21.3,29.88,NW,307,0.0,7.0,63,0.00,,OVC030,0.00,VWS V14.01,2013-03-05 05:45:00,
2013-03-05 00:50:00,32.4,21.6,29.89,North,10,4.0,4.0,64,0.00,,OVC030,0.00,VWS V14.01,2013-03-05 05:50:00,
2013-03-05 00:55:00,32.5,21.3,29.89,WNW,298,0.0,5.0,63,0.00,,OVC030,0.00,VWS V14.01,2013-03-05 05:55:00,
2013-03-05 01:00:00,32.5,21.3,29.89,NNW,330,0.0,8.0,63,0.00,,OVC030,0.00,VWS V14.01,2013-03-05 06:00:00,
2013-03-05 01:05:00,32.5,21.3,29.89,NW,316,0.0,9.0,63,0.00,,OVC030,0.00,VWS V14.01,2013-03-05 06:05:00,
2013-03-05 01:10:00,32.5,21.7,29.89,North,358,3.0,6.0,64,0.00,,OVC030,0.00,VWS V14.01,2013-03-05 06:10:00,
2013-03-05 01:15:00,32.5,21.3,29.89,NNW,339,4.0,6.0,63,0.00,,OVC030,0.00,VWS V14.01,2013-03-05 06:15:00,
2013-03-05 01:20:00,32.5,21.7,29.89,NW,306,1.0,6.0,64,0.00,,OVC030,0.00,VWS V14.01,2013-03-05 06:20:00,
2013-03-05 01:25:00,32.5,21.3,29.89,NW,325,4.0,6.0,63,0.00,,OVC030,0.00,VWS V14.01,2013-03-05 06:25:00,
2013-03-05 01:30:00,32.5,21.7,29.89,NNW,335,0.0,5.0,64,0.00,,OVC030,0.00,VWS V14.01,2013-03-05 06:30:00,
2013-03-05 01:35:00,32.4,21.6,29.89,NNW,328,2.0,9.0,64,0.00,,OVC030,0.00,VWS V14.01,2013-03-05 06:35:00,
2013-03-05 01:40:00,32.4,21.6,29.89,West,260,2.0,4.0,64,0.00,,OVC030,0.00,VWS V14.01,2013-03-05 06:40:00,
2013-03-05 01:45:00,32.2,21.8,29.89,North,358,0.0,2.0,65,0.00,,OVC030,0.00,VWS V14.01,2013-03-05 06:45:00,
2013-03-05 01:50:00,32.2,21.4,29.88,NNW,330,0.0,4.0,64,0.00,,OVC030,0.00,VWS V14.01,2013-03-05 06:50:00,
2013-03-05 01:55:00,32.1,21.3,29.88,North,358,4.0,8.0,64,0.00,,OVC030,0.00,VWS V14.01,2013-03-05 06:55:00,
2013-03-05 02:00:00,32.1,21.3,29.88,North,349,2.0,8.0,64,0.00,,OVC030,0.00,VWS V14.01,2013-03-05 07:00:00,
2013-03-05 02:05:00,31.9,21.1,29.88,North,358,0.0,7.0,64,0.00,,OVC030,0.00,VWS V14.01,2013-03-05 07:05:00,
2013-03-05 02:10:00,31.9,21.1,29.88,WNW,300,0.0,5.0,64,0.00,,OVC030,0.00,VWS V14.01,2013-03-05 07:10:00,
2013-03-05 02:15:00,31.8,21.0,29.88,NNW,347,1.0,5.0,64,0.00,,OVC030,0.00,VWS V14.01,2013-03-05 07:15:00,
2013-03-05 02:20:00,31.8,20.7,29.88,West,272,0.0,1.0,63,0.00,,OVC030,0.00,VWS V14.01,2013-03-05 07:20:00,
2013-03-05 02:25:00,31.6,20.8,29.88,West,272,0.0,1.0,64,0.00,,OVC030,0.00,VWS V14.01,2013-03-05 07:25:00,
2013-03-05 02:30:00,31.5,20.7,29.88,WNW,283,0.0,8.0,64,0.00,,OVC030,0.00,VWS V14.01,2013-03-05 07:30:00,
2013-03-05 02:35:00,31.6,20.8,29.88,NW,311,0.0,2.0,64,0.00,,OVC030,0.00,VWS V14.01,2013-03-05 07:35:00,
2013-03-05 02:40:00,31.6,20.8,29.88,NNW,337,0.0,5.0,64,0.00,,OVC030,0.00,VWS V14.01,2013-03-05 07:40:00,
2013-03-05 02:45:00,31.5,20.7,29.88,North,0,0.0,3.0,64,0.00,,OVC030,0.00,VWS V14.01,2013-03-05 07:45:00,
2013-03-05 02:50:00,31.5,20.7,29.89,NNW,344,0.0,5.0,64,0.00,,OVC030,0.00,VWS V14.01,2013-03-05 07:50:00,
2013-03-05 02:55:00,31.3,20.9,29.89,NNW,347,0.0,4.0,65,0.00,,OVC030,0.00,VWS V14.01,2013-03-05 07:55:00,
2013-03-05 03:00:00,31.2,20.8,29.89,NNW,346,1.0,1.0,65,0.00,,OVC030,0.00,VWS V14.01,2013-03-05 08:00:00,
2013-03-05 03:05:00,30.9,20.9,29.88,WNW,295,0.0,4.0,66,0.00,,OVC030,0.00,VWS V14.01,2013-03-05 08:05:00,
2013-03-05 03:10:00,30.7,20.7,29.88,NNE,33,0.0,2.0,66,0.00,,OVC030,0.00,VWS V14.01,2013-03-05 08:10:00,
2013-03-05 03:15:00,30.4,20.8,29.88,North,0,0.0,2.0,67,0.00,,OVC030,0.00,VWS V14.01,2013-03-05 08:15:00,
2013-03-05 03:20:00,30.4,20.8,29.89,NNW,341,0.0,2.0,67,0.00,,OVC028,0.00,VWS V14.01,2013-03-05 08:20:00,
2013-03-05 03:25:00,30.4,20.8,29.89,NNW,330,2.0,6.0,67,0.00,,OVC028,0.00,VWS V14.01,2013-03-05 08:25:00,
2013-03-05 03:30:00,30.4,20.8,29.89,NNW,340,0.0,4.0,67,0.00,,OVC028,0.00,VWS V14.01,2013-03-05 08:30:00,
2013-03-05 03:35:00,30.6,21.3,29.89,NNW,346,0.0,5.0,68,0.00,,OVC028,0.00,VWS V14.01,2013-03-05 08:35:00,
2013-03-05 03:40:00,30.4,21.1,29.89,NW,321,1.0,6.0,68,0.00,,OVC028,0.00,VWS V14.01,2013-03-05 08:40:00,
2013-03-05 03:45:00,30.4,20.8,29.89,NW,306,0.0,4.0,67,0.00,,OVC028,0.00,VWS V14.01,2013-03-05 08:45:00,
2013-03-05 03:50:00,30.4,20.8,29.89,NNW,333,1.0,5.0,67,0.00,,OVC028,0.00,VWS V14.01,2013-03-05 08:50:00,
2013-03-05 03:55:00,30.4,20.8,29.89,NNW,341,0.0,1.0,67,0.00,,OVC028,0.00,VWS V14.01,2013-03-05 08:55:00,
2013-03-05 04:00:00,30.7,21.1,29.89,NNW,336,1.0,10.0,67,0.00,,OVC028,0.00,VWS V14.01,2013-03-05 09:00:00,
2013-03-05 04:05:00,30.9,20.9,29.90,NNW,327,1.0,7.0,66,0.00,,OVC028,0.00,VWS V14.01,2013-03-05 09:05:00,
2013-03-05 04:10:00,31.0,21.0,29.90,NNW,343,2.0,6.0,66,0.00,,OVC028,0.00,VWS V14.01,2013-03-05 09:10:00,
2013-03-05 04:15:00,31.2,21.2,29.90,NW,323,5.0,10.0,66,0.00,,OVC028,0.00,VWS V14.01,2013-03-05 09:15:00,
2013-03-05 04:20:00,31.2,20.8,29.90,WNW,301,2.0,9.0,65,0.00,,OVC028,0.00,VWS V14.01,2013-03-05 09:20:00,
2013-03-05 04:25:00,31.2,20.8,29.90,WNW,291,4.0,4.0,65,0.00,,OVC028,0.00,VWS V14.01,2013-03-05 09:25:00,
2013-03-05 04:30:00,31.0,20.6,29.90,WNW,283,0.0,5.0,65,0.00,,OVC028,0.00,VWS V14.01,2013-03-05 09:30:00,
2013-03-05 04:35:00,31.2,21.2,29.91,NW,322,1.0,5.0,66,0.00,,OVC028,0.00,VWS V14.01,2013-03-05 09:35:00,
2013-03-05 04:40:00,31.0,20.6,29.91,NW,315,3.0,9.0,65,0.00,,OVC028,0.00,VWS V14.01,2013-03-05 09:40:00,
2013-03-05 04:45:00,31.2,20.8,29.91,NNW,339,1.0,11.0,65,0.00,,OVC028,0.00,VWS V14.01,2013-03-05 09:45:00,
2013-03-05 04:50:00,31.2,20.8,29.91,NW,309,1.0,8.0,65,0.00,,OVC028,0.00,VWS V14.01,2013-03-05 09:50:00,
2013-03-05 04:55:00,31.2,20.8,29.91,WNW,300,1.0,6.0,65,0.00,,OVC028,0.00,VWS V14.01,2013-03-05 09:55:00,
2013-03-05 05:00:00,31.2,20.8,29.91,NNW,327,4.0,7.0,65,0.00,,OVC026,0.00,VWS V14.01,2013-03-05 10:00:00,
2013-03-05 05:05:00,31.2,20.8,29.92,WNW,296,5.0,5.0,65,0.00,,OVC026,0.00,VWS V14.01,2013-03-05 10:05:00,
2013-03-05 05:10:00,31.3,20.9,29.92,WNW,291,5.0,9.0,65,0.00,,OVC026,0.00,VWS V14.01,2013-03-05 10:10:00,
2013-03-05 05:15:00,31.3,20.9,29.92,West,276,0.0,4.0,65,0.00,,OVC026,0.00,VWS V14.01,2013-03-05 10:15:00,
2013-03-05 05:20:00,31.5,21.1,29.92,NW,304,0.0,8.0,65,0.00,,OVC026,0.00,VWS V14.01,2013-03-05 10:20:00,
2013-03-05 05:25:00,31.5,21.1,29.92,NW,318,5.0,11.0,65,0.00,,OVC026,0.00,VWS V14.01,2013-03-05 10:25:00,
2013-03-05 05:30:00,31.3,20.9,29.92,NW,309,2.0,4.0,65,0.00,,OVC026,0.00,VWS V14.01,2013-03-05 10:30:00,
2013-03-05 05:35:00,31.3,21.3,29.92,NNW,330,0.0,7.0,66,0.00,,OVC026,0.00,VWS V14.01,2013-03-05 10:35:00,
2013-03-05 05:40:00,31.2,21.2,29.92,North,0,2.0,5.0,66,0.00,,OVC026,0.00,VWS V14.01,2013-03-05 10:40:00,
2013-03-05 05:45:00,31.2,21.2,29.92,NNW,335,5.0,5.0,66,0.00,,OVC026,0.00,VWS V14.01,2013-03-05 10:45:00,
2013-03-05 05:50:00,31.0,21.0,29.92,WNW,297,0.0,5.0,66,0.00,,OVC026,0.00,VWS V14.01,2013-03-05 10:50:00,
2013-03-05 05:55:00,30.9,20.9,29.92,NW,321,3.0,6.0,66,0.00,,OVC026,0.00,VWS V14.01,2013-03-05 10:55:00,
2013-03-05 06:00:00,30.7,20.7,29.92,WNW,294,2.0,12.0,66,0.00,,OVC026,0.00,VWS V14.01,2013-03-05 11:00:00,
2013-03-05 06:05:00,30.7,21.1,29.92,NW,307,0.0,7.0,67,0.00,,OVC026,0.00,VWS V14.01,2013-03-05 11:05:00,
2013-03-05 06:10:00,30.6,21.0,29.92,NW,322,6.0,6.0,67,0.00,,OVC026,0.00,VWS V14.01,2013-03-05 11:10:00,
2013-03-05 06:15:00,30.4,20.8,29.92,NNW,332,0.0,6.0,67,0.00,,OVC026,0.00,VWS V14.01,2013-03-05 11:15:00,
2013-03-05 06:20:00,30.3,21.0,29.92,NNW,328,0.0,4.0,68,0.00,,OVC026,0.00,VWS V14.01,2013-03-05 11:20:00,
2013-03-05 06:25:00,30.1,20.8,29.92,North,353,1.0,2.0,68,0.00,,OVC026,0.00,VWS V14.01,2013-03-05 11:25:00,
2013-03-05 06:30:00,30.1,20.8,29.92,NW,317,0.0,5.0,68,0.00,,OVC026,0.00,VWS V14.01,2013-03-05 11:30:00,
2013-03-05 06:35:00,30.0,20.7,29.92,NNW,333,0.0,0.0,68,0.00,,BKN026,0.00,VWS V14.01,2013-03-05 11:35:00,
2013-03-05 06:40:00,30.0,20.7,29.92,WNW,293,0.0,4.0,68,0.00,,BKN026,0.00,VWS V14.01,2013-03-05 11:40:00,
2013-03-05 06:45:00,30.0,20.7,29.92,NW,321,0.0,4.0,68,0.00,,BKN026,0.00,VWS V14.01,2013-03-05 11:45:00,
2013-03-05 06:50:00,30.0,20.7,29.93,North,0,1.0,7.0,68,0.00,,BKN026,0.00,VWS V14.01,2013-03-05 11:50:00,
2013-03-05 06:55:00,30.1,20.8,29.93,North,354,0.0,4.0,68,0.00,,BKN026,0.00,VWS V14.01,2013-03-05 11:55:00,
2013-03-05 07:00:00,30.1,20.8,29.93,WNW,303,0.0,4.0,68,0.00,,OVC026,0.00,VWS V14.01,2013-03-05 12:00:00,
2013-03-05 07:05:00,30.3,21.0,29.93,North,8,5.0,5.0,68,0.00,,OVC026,0.00,VWS V14.01,2013-03-05 12:05:00,
2013-03-05 07:10:00,30.3,21.0,29.93,WNW,295,1.0,2.0,68,0.00,,OVC026,0.00,VWS V14.01,2013-03-05 12:10:00,
2013-03-05 07:15:00,30.7,21.1,29.93,West,281,5.0,6.0,67,0.00,,OVC026,0.00,VWS V14.01,2013-03-05 12:15:00,
2013-03-05 07:20:00,31.0,21.7,29.94,NW,314,1.0,4.0,68,0.00,,BKN026,0.00,VWS V14.01,2013-03-05 12:20:00,
2013-03-05 07:25:00,31.3,21.6,29.94,NNW,332,3.0,5.0,67,0.00,,OVC026,0.00,VWS V14.01,2013-03-05 12:25:00,
2013-03-05 07:30:00,31.6,21.9,29.94,North,0,0.0,5.0,67,0.00,,OVC026,0.00,VWS V14.01,2013-03-05 12:30:00,
2013-03-05 07:35:00,31.9,21.9,29.94,NNW,343,4.0,11.0,66,0.00,,OVC026,0.00,VWS V14.01,2013-03-05 12:35:00,
2013-03-05 07:40:00,32.1,21.7,29.94,NW,311,1.0,9.0,65,0.00,,OVC024,0.00,VWS V14.01,2013-03-05 12:40:00,
2013-03-05 07:45:00,32.4,22.0,29.94,NW,315,2.0,6.0,65,0.00,,OVC024,0.00,VWS V14.01,2013-03-05 12:45:00,
2013-03-05 07:50:00,32.7,22.2,29.94,NW,313,3.0,10.0,65,0.00,,OVC024,0.00,VWS V14.01,2013-03-05 12:50:00,
2013-03-05 07:55:00,32.9,22.4,29.94,NNW,329,0.0,5.0,65,0.00,,OVC024,0.00,VWS V14.01,2013-03-05 12:55:00,
2013-03-05 08:00:00,33.2,22.4,29.94,NW,319,2.0,7.0,64,0.00,,OVC024,0.00,VWS V14.01,2013-03-05 13:00:00,
2013-03-05 08:05:00,33.4,22.5,29.94,NW,308,6.0,7.0,64,0.00,,OVC024,0.00,VWS V14.01,2013-03-05 13:05:00,
2013-03-05 08:10:00,33.5,22.6,29.94,North,358,5.0,7.0,64,0.00,,BKN024,0.00,VWS V14.01,2013-03-05 13:10:00,
2013-03-05 08:15:00,33.5,22.3,29.94,North,0,0.0,6.0,63,0.00,,BKN024,0.00,VWS V14.01,2013-03-05 13:15:00,
2013-03-05 08:20:00,33.8,22.5,29.94,NW,309,0.0,7.0,63,0.00,,BKN024,0.00,VWS V14.01,2013-03-05 13:20:00,
2013-03-05 08:25:00,34.0,22.4,29.94,NNW,342,4.0,9.0,62,0.00,,BKN024,0.00,VWS V14.01,2013-03-05 13:25:00,
2013-03-05 08:30:00,33.7,22.5,29.94,NW,316,6.0,8.0,63,0.00,,BKN024,0.00,VWS V14.01,2013-03-05 13:30:00,
2013-03-05 08:35:00,34.0,22.7,29.95,NW,314,1.0,9.0,63,0.00,,SCT026,0.00,VWS V14.01,2013-03-05 13:35:00,
2013-03-05 08:40:00,34.6,23.3,29.95,North,358,5.0,5.0,63,0.00,,SCT026,0.00,VWS V14.01,2013-03-05 13:40:00,
2013-03-05 08:45:00,35.0,23.3,29.95,NNW,338,1.0,7.0,62,0.00,,SCT026,0.00,VWS V14.01,2013-03-05 13:45:00,
2013-03-05 08:50:00,35.3,23.2,29.95,North,358,7.0,8.0,61,0.00,,SCT026,0.00,VWS V14.01,2013-03-05 13:50:00,
2013-03-05 08:55:00,35.0,22.9,29.95,NW,304,4.0,8.0,61,0.00,,BKN026,0.00,VWS V14.01,2013-03-05 13:55:00,
2013-03-05 09:00:00,35.0,22.5,29.95,North,0,5.0,8.0,60,0.00,,BKN026,0.00,VWS V14.01,2013-03-05 14:00:00,
2013-03-05 09:05:00,34.9,22.4,29.95,North,358,0.0,9.0,60,0.00,,BKN026,0.00,VWS V14.01,2013-03-05 14:05:00,
2013-03-05 09:10:00,34.9,22.8,29.95,North,0,7.0,9.0,61,0.00,,FEW024,0.00,VWS V14.01,2013-03-05 14:10:00,
2013-03-05 09:15:00,35.2,23.1,29.95,North,7,5.0,9.0,61,0.00,,FEW024,0.00,VWS V14.01,2013-03-05 14:15:00,
2013-03-05 09:20:00,35.6,23.5,29.95,NNW,329,5.0,8.0,61,0.00,,BKN026,0.00,VWS V14.01,2013-03-05 14:20:00,
2013-03-05 09:25:00,36.0,23.1,29.95,NNW,345,2.0,8.0,59,0.00,,BKN026,0.00,VWS V14.01,2013-03-05 14:25:00,
2013-03-05 09:30:00,36.2,23.7,29.95,North,1,5.0,7.0,60,0.00,,BKN026,0.00,VWS V14.01,2013-03-05 14:30:00,
2013-03-05 09:35:00,36.5,24.0,29.95,NNE,18,0.0,8.0,60,0.00,,BKN026,0.00,VWS V14.01,2013-03-05 14:35:00,
2013-03-05 09:40:00,36.3,23.0,29.95,NNE,18,2.0,8.0,58,0.00,,FEW028,0.00,VWS V14.01,2013-03-05 14:40:00,
2013-03-05 09:45:00,36.2,22.9,29.95,NW,317,4.0,6.0,58,0.00,,FEW028,0.00,VWS V14.01,2013-03-05 14:45:00,
2013-03-05 09:50:00,35.9,22.6,29.95,NNW,335,0.0,5.0,58,0.00,,FEW028,0.00,VWS V14.01,2013-03-05 14:50:00,
2013-03-05 09:55:00,36.2,23.3,29.95,North,8,5.0,5.0,59,0.00,,BKN028,0.00,VWS V14.01,2013-03-05 14:55:00,
2013-03-05 10:00:00,37.0,23.2,29.95,ENE,65,6.0,6.0,57,0.00,,BKN028,0.00,VWS V14.01,2013-03-05 15:00:00,
2013-03-05 10:05:00,37.0,23.6,29.95,North,4,1.0,8.0,58,0.00,,BKN028,0.00,VWS V14.01,2013-03-05 15:05:00,
2013-03-05 10:10:00,36.9,23.9,29.95,North,0,7.0,10.0,59,0.00,,BKN028,0.00,VWS V14.01,2013-03-05 15:10:00,
2013-03-05 10:15:00,37.3,23.9,29.95,North,357,2.0,5.0,58,0.00,,BKN028,0.00,VWS V14.01,2013-03-05 15:15:00,
2013-03-05 10:20:00,37.8,24.8,29.94,NE,37,5.0,11.0,59,0.00,,BKN028,0.00,VWS V14.01,2013-03-05 15:20:00,
2013-03-05 10:25:00,37.8,24.0,29.94,NE,49,1.0,7.0,57,0.00,,BKN028,0.00,VWS V14.01,2013-03-05 15:25:00,
2013-03-05 10:30:00,38.0,24.1,29.94,NNE,12,5.0,7.0,57,0.00,,BKN028,0.00,VWS V14.01,2013-03-05 15:30:00,
2013-03-05 10:35:00,38.2,24.7,29.94,North,10,3.0,8.0,58,0.00,,BKN028,0.00,VWS V14.01,2013-03-05 15:35:00,
2013-03-05 10:40:00,38.6,25.1,29.94,NE,44,5.0,7.0,58,0.00,,BKN028,0.00,VWS V14.01,2013-03-05 15:40:00,
2013-03-05 10:45:00,38.8,23.6,29.94,East,79,2.0,7.0,54,0.00,,BKN028,0.00,VWS V14.01,2013-03-05 15:45:00,
2013-03-05 10:50:00,39.2,25.7,29.94,NNE,27,5.0,6.0,58,0.00,,BKN028,0.00,VWS V14.01,2013-03-05 15:50:00,
2013-03-05 10:55:00,39.3,24.5,29.94,ENE,63,6.0,6.0,55,0.00,,BKN028,0.00,VWS V14.01,2013-03-05 15:55:00,
2013-03-05 11:00:00,39.8,24.1,29.94,North,0,4.0,4.0,53,0.00,,SCT030,0.00,VWS V14.01,2013-03-05 16:00:00,
2013-03-05 11:05:00,39.9,25.1,29.94,NNW,335,5.0,5.0,55,0.00,,SCT030,0.00,VWS V14.01,2013-03-05 16:05:00,
2013-03-05 11:10:00,40.1,24.8,29.94,NNE,25,1.0,6.0,54,0.00,,SCT030,0.00,VWS V14.01,2013-03-05 16:10:00,
2013-03-05 11:15:00,40.1,25.2,29.94,North,0,2.0,7.0,55,0.00,,SCT030,0.00,VWS V14.01,2013-03-05 16:15:00,
2013-03-05 11:20:00,39.9,24.6,29.94,NE,39,3.0,6.0,54,0.00,,BKN028,0.00,VWS V14.01,2013-03-05 16:20:00,
2013-03-05 11:25:00,40.2,25.3,29.94,NNE,15,4.0,4.0,55,0.00,,SCT030,0.00,VWS V14.01,2013-03-05 16:25:00,
2013-03-05 11:30:00,40.6,24.8,29.94,NE,54,6.0,9.0,53,0.00,,SCT030,0.00,VWS V14.01,2013-03-05 16:30:00,
2013-03-05 11:35:00,40.8,25.0,29.94,NW,313,2.0,8.0,53,0.00,,SCT030,0.00,VWS V14.01,2013-03-05 16:35:00,
2013-03-05 11:40:00,40.3,24.1,29.94,NNW,342,2.0,2.0,52,0.00,,FEW032,0.00,VWS V14.01,2013-03-05 16:40:00,
2013-03-05 11:45:00,40.6,24.8,29.94,NE,34,2.0,5.0,53,0.00,,FEW032,0.00,VWS V14.01,2013-03-05 16:45:00,
2013-03-05 11:50:00,40.8,25.0,29.93,NNE,23,1.0,4.0,53,0.00,,FEW032,0.00,VWS V14.01,2013-03-05 16:50:00,
2013-03-05 11:55:00,41.3,25.0,29.93,NNE,25,2.0,6.0,52,0.00,,CLR,0.00,VWS V14.01,2013-03-05 16:55:00,
2013-03-05 12:00:00,41.9,25.1,29.93,North,0,0.0,5.0,51,0.00,,CLR,0.00,VWS V14.01,2013-03-05 17:00:00,
2013-03-05 12:05:00,41.9,25.1,29.93,NW,311,0.0,4.0,51,0.00,,FEW032,0.00,VWS V14.01,2013-03-05 17:05:00,
2013-03-05 12:10:00,42.2,25.9,29.93,ESE,112,0.0,4.0,52,0.00,,FEW032,0.00,VWS V14.01,2013-03-05 17:10:00,
2013-03-05 12:15:00,42.6,25.8,29.93,North,1,2.0,6.0,51,0.00,,CLR,0.00,VWS V14.01,2013-03-05 17:15:00,
2013-03-05 12:20:00,42.5,25.7,29.93,NNE,15,0.0,1.0,51,0.00,,CLR,0.00,VWS V14.01,2013-03-05 17:20:00,
2013-03-05 12:25:00,42.9,26.0,29.93,ESE,104,2.0,5.0,51,0.00,,CLR,0.00,VWS V14.01,2013-03-05 17:25:00,
2013-03-05 12:30:00,43.3,25.9,29.93,WSW,244,4.0,7.0,50,0.00,,CLR,0.00,VWS V14.01,2013-03-05 17:30:00,
2013-03-05 12:35:00,42.9,25.1,29.92,WSW,251,2.0,6.0,49,0.00,,FEW036,0.00,VWS V14.01,2013-03-05 17:35:00,
2013-03-05 12:40:00,43.1,25.3,29.92,SW,221,0.0,7.0,49,0.00,,FEW036,0.00,VWS V14.01,2013-03-05 17:40:00,
2013-03-05 12:45:00,43.2,24.9,29.92,NW,319,1.0,5.0,48,0.00,,FEW036,0.00,VWS V14.01,2013-03-05 17:45:00,
2013-03-05 12:50:00,42.9,26.0,29.92,North,0,10.0,10.0,51,0.00,,FEW036,0.00,VWS V14.01,2013-03-05 17:50:00,
2013-03-05 12:55:00,43.2,26.8,29.92,North,350,4.0,7.0,52,0.00,,FEW036,0.00,VWS V14.01,2013-03-05 17:55:00,
2013-03-05 13:00:00,43.5,26.6,29.92,NE,49,6.0,7.0,51,0.00,,FEW036,0.00,VWS V14.01,2013-03-05 18:00:00,
2013-03-05 13:05:00,43.9,25.5,29.91,ESE,105,4.0,5.0,48,0.00,,FEW036,0.00,VWS V14.01,2013-03-05 18:05:00,
2013-03-05 13:10:00,44.1,25.7,29.91,SE,129,2.0,4.0,48,0.00,,FEW036,0.00,VWS V14.01,2013-03-05 18:10:00,
2013-03-05 13:15:00,44.3,26.4,29.91,South,179,0.0,6.0,49,0.00,,FEW036,0.00,VWS V14.01,2013-03-05 18:15:00,
2013-03-05 13:20:00,44.3,25.4,29.91,North,8,0.0,8.0,47,0.00,,FEW036,0.00,VWS V14.01,2013-03-05 18:20:00,
2013-03-05 13:25:00,44.2,26.8,29.91,NW,320,2.0,5.0,50,0.00,,FEW036,0.00,VWS V14.01,2013-03-05 18:25:00,
2013-03-05 13:30:00,44.3,27.3,29.91,North,0,4.0,6.0,51,0.00,,FEW036,0.00,VWS V14.01,2013-03-05 18:30:00,
2013-03-05 13:35:00,44.1,25.7,29.91,NNE,27,2.0,6.0,48,0.00,,CLR,0.00,VWS V14.01,2013-03-05 18:35:00,
2013-03-05 13:40:00,44.3,25.9,29.91,NE,52,6.0,6.0,48,0.00,,CLR,0.00,VWS V14.01,2013-03-05 18:40:00,
2013-03-05 13:45:00,44.5,26.0,29.91,NE,56,4.0,5.0,48,0.00,,CLR,0.00,VWS V14.01,2013-03-05 18:45:00,
2013-03-05 13:50:00,44.6,27.6,29.91,North,4,1.0,4.0,51,0.00,,CLR,0.00,VWS V14.01,2013-03-05 18:50:00,
2013-03-05 13:55:00,44.5,25.0,29.91,NNE,26,0.0,4.0,46,0.00,,CLR,0.00,VWS V14.01,2013-03-05 18:55:00,
2013-03-05 14:00:00,44.2,25.8,29.91,ESE,110,4.0,5.0,48,0.00,,CLR,0.00,VWS V14.01,2013-03-05 19:00:00,
2013-03-05 14:05:00,44.1,24.7,29.90,ESE,110,0.0,1.0,46,0.00,,CLR,0.00,VWS V14.01,2013-03-05 19:05:00,
2013-03-05 14:10:00,43.9,25.0,29.90,ESE,110,0.0,3.0,47,0.00,,CLR,0.00,VWS V14.01,2013-03-05 19:10:00,
2013-03-05 14:15:00,43.8,24.9,29.90,NE,39,0.0,0.0,47,0.00,,CLR,0.00,VWS V14.01,2013-03-05 19:15:00,
2013-03-05 14:20:00,44.6,26.1,29.90,WNW,284,2.0,3.0,48,0.00,,CLR,0.00,VWS V14.01,2013-03-05 19:20:00,
2013-03-05 14:25:00,45.2,27.2,29.90,SE,133,2.0,2.0,49,0.00,,CLR,0.00,VWS V14.01,2013-03-05 19:25:00,
2013-03-05 14:30:00,46.1,26.0,29.90,ENE,73,0.0,5.0,45,0.00,,CLR,0.00,VWS V14.01,2013-03-05 19:30:00,
2013-03-05 14:35:00,46.0,25.9,29.89,ENE,75,0.0,4.0,45,0.00,,CLR,0.00,VWS V14.01,2013-03-05 19:35:00,
2013-03-05 14:40:00,45.8,26.2,29.89,East,94,0.0,4.0,46,0.00,,CLR,0.00,VWS V14.01,2013-03-05 19:40:00,
2013-03-05 14:45:00,44.9,25.4,29.89,NNW,343,1.0,5.0,46,0.00,,CLR,0.00,VWS V14.01,2013-03-05 19:45:00,
2013-03-05 14:50:00,44.9,26.4,29.89,East,83,2.0,4.0,48,0.00,,CLR,0.00,VWS V14.01,2013-03-05 19:50:00,
2013-03-05 14:55:00,45.2,25.7,29.89,ENE,66,0.0,2.0,46,0.00,,CLR,0.00,VWS V14.01,2013-03-05 19:55:00,
2013-03-05 15:00:00,45.8,26.2,29.89,North,358,1.0,2.0,46,0.00,,CLR,0.00,VWS V14.01,2013-03-05 20:00:00,
2013-03-05 15:05:00,46.2,26.6,29.89,North,358,1.0,2.0,46,0.00,,CLR,0.00,VWS V14.01,2013-03-05 20:05:00,
2013-03-05 15:10:00,46.5,25.8,29.89,WSW,250,1.0,5.0,44,0.00,,CLR,0.00,VWS V14.01,2013-03-05 20:10:00,
2013-03-05 15:15:00,46.8,26.0,29.89,WSW,250,1.0,4.0,44,0.00,,CLR,0.00,VWS V14.01,2013-03-05 20:15:00,
2013-03-05 15:20:00,47.3,26.0,29.89,SSE,165,1.0,5.0,43,0.00,,CLR,0.00,VWS V14.01,2013-03-05 20:20:00,
2013-03-05 15:25:00,47.1,26.9,29.89,ESE,111,1.0,4.0,45,0.00,,CLR,0.00,VWS V14.01,2013-03-05 20:25:00,
2013-03-05 15:30:00,47.3,26.5,29.89,SSW,193,1.0,4.0,44,0.00,,CLR,0.00,VWS V14.01,2013-03-05 20:30:00,
2013-03-05 15:35:00,47.3,26.0,29.88,SSW,201,0.0,1.0,43,0.00,,CLR,0.00,VWS V14.01,2013-03-05 20:35:00,
2013-03-05 15:40:00,47.6,26.2,29.88,ESE,115,1.0,2.0,43,0.00,,CLR,0.00,VWS V14.01,2013-03-05 20:40:00,
2013-03-05 15:45:00,47.4,26.0,29.88,East,85,0.0,5.0,43,0.00,,CLR,0.00,VWS V14.01,2013-03-05 20:45:00,
2013-03-05 15:50:00,47.3,26.5,29.87,NE,37,2.0,5.0,44,0.00,,CLR,0.00,VWS V14.01,2013-03-05 20:50:00,
2013-03-05 15:55:00,47.0,26.2,29.87,NNE,20,0.0,2.0,44,0.00,,CLR,0.00,VWS V14.01,2013-03-05 20:55:00,
2013-03-05 16:00:00,47.1,26.9,29.87,NE,36,1.0,4.0,45,0.00,,CLR,0.00,VWS V14.01,2013-03-05 21:00:00,
2013-03-05 16:05:00,47.0,26.2,29.87,ENE,62,2.0,4.0,44,0.00,,CLR,0.00,VWS V14.01,2013-03-05 21:05:00,
2013-03-05 16:10:00,47.0,25.7,29.87,East,82,3.0,7.0,43,0.00,,CLR,0.00,VWS V14.01,2013-03-05 21:10:00,
2013-03-05 16:15:00,46.8,25.5,29.87,ENE,60,3.0,6.0,43,0.00,,CLR,0.00,VWS V14.01,2013-03-05 21:15:00,
2013-03-05 16:20:00,46.8,25.5,29.86,ENE,72,0.0,4.0,43,0.00,,CLR,0.00,VWS V14.01,2013-03-05 21:20:00,
2013-03-05 16:25:00,46.5,25.8,29.86,ENE,61,1.0,2.0,44,0.00,,CLR,0.00,VWS V14.01,2013-03-05 21:25:00,
2013-03-05 16:30:00,46.4,25.1,29.86,East,82,3.0,6.0,43,0.00,,CLR,0.00,VWS V14.01,2013-03-05 21:30:00,
2013-03-05 16:35:00,46.2,26.0,29.86,SE,133,0.0,4.0,45,0.00,,CLR,0.00,VWS V14.01,2013-03-05 21:35:00,
2013-03-05 16:40:00,46.1,25.4,29.86,ESE,102,8.0,8.0,44,0.00,,CLR,0.00,VWS V14.01,2013-03-05 21:40:00,
2013-03-05 16:45:00,46.0,25.9,29.86,ESE,103,5.0,5.0,45,0.00,,CLR,0.00,VWS V14.01,2013-03-05 21:45:00,
2013-03-05 16:50:00,46.0,25.3,29.86,ENE,68,2.0,6.0,44,0.00,,CLR,0.00,VWS V14.01,2013-03-05 21:50:00,
2013-03-05 16:55:00,45.7,26.1,29.86,NE,48,4.0,5.0,46,0.00,,CLR,0.00,VWS V14.01,2013-03-05 21:55:00,
2013-03-05 17:00:00,45.5,26.5,29.86,NE,42,0.0,4.0,47,0.00,,CLR,0.00,VWS V14.01,2013-03-05 22:00:00,
2013-03-05 17:05:00,45.4,25.9,29.87,NNE,29,0.0,6.0,46,0.00,,CLR,0.00,VWS V14.01,2013-03-05 22:05:00,
2013-03-05 17:10:00,45.4,25.9,29.87,NNE,29,0.0,2.0,46,0.00,,CLR,0.00,VWS V14.01,2013-03-05 22:10:00,
2013-03-05 17:15:00,45.5,26.5,29.87,NNE,29,0.0,1.0,47,0.00,,CLR,0.00,VWS V14.01,2013-03-05 22:15:00,
2013-03-05 17:20:00,45.5,25.9,29.87,ESE,112,0.0,2.0,46,0.00,,CLR,0.00,VWS V14.01,2013-03-05 22:20:00,
2013-03-05 17:25:00,45.4,26.9,29.87,ENE,60,1.0,4.0,48,0.00,,CLR,0.00,VWS V14.01,2013-03-05 22:25:00,
2013-03-05 17:30:00,44.9,25.4,29.87,ENE,75,1.0,2.0,46,0.00,,CLR,0.00,VWS V14.01,2013-03-05 22:30:00,
2013-03-05 17:35:00,44.6,25.6,29.87,East,86,1.0,4.0,47,0.00,,CLR,0.00,VWS V14.01,2013-03-05 22:35:00,
2013-03-05 17:40:00,44.5,25.5,29.87,East,91,0.0,0.0,47,0.00,,CLR,0.00,VWS V14.01,2013-03-05 22:40:00,
2013-03-05 17:45:00,44.2,25.8,29.87,East,93,0.0,1.0,48,0.00,,CLR,0.00,VWS V14.01,2013-03-05 22:45:00,
2013-03-05 17:50:00,43.8,25.4,29.88,ESE,106,0.0,2.0,48,0.00,,CLR,0.00,VWS V14.01,2013-03-05 22:50:00,
2013-03-05 17:55:00,43.5,25.1,29.88,ESE,106,0.0,1.0,48,0.00,,CLR,0.00,VWS V14.01,2013-03-05 22:55:00,
2013-03-05 18:00:00,43.1,25.7,29.88,ESE,106,0.0,0.0,50,0.00,,CLR,0.00,VWS V14.01,2013-03-05 23:00:00,
2013-03-05 18:05:00,42.6,25.3,29.89,ESE,106,0.0,1.0,50,0.00,,CLR,0.00,VWS V14.01,2013-03-05 23:05:00,
2013-03-05 18:10:00,42.2,24.9,29.89,ESE,106,0.0,0.0,50,0.00,,CLR,0.00,VWS V14.01,2013-03-05 23:10:00,
2013-03-05 18:15:00,41.8,24.5,29.89,ESE,106,0.0,0.0,50,0.00,,CLR,0.00,VWS V14.01,2013-03-05 23:15:00,
2013-03-05 18:20:00,41.3,25.0,29.89,ESE,106,0.0,0.0,52,0.00,,CLR,0.00,VWS V14.01,2013-03-05 23:20:00,
2013-03-05 18:25:00,40.9,24.6,29.89,ESE,106,0.0,0.0,52,0.00,,CLR,0.00,VWS V14.01,2013-03-05 23:25:00,
2013-03-05 18:30:00,40.6,24.4,29.89,ESE,106,0.0,0.0,52,0.00,,CLR,0.00,VWS V14.01,2013-03-05 23:30:00,
2013-03-05 18:35:00,40.3,24.1,29.89,ESE,106,0.0,0.0,52,0.00,,CLR,0.00,VWS V14.01,2013-03-05 23:35:00,
2013-03-05 18:40:00,40.2,24.5,29.89,ESE,106,0.0,0.0,53,0.00,,CLR,0.00,VWS V14.01,2013-03-05 23:40:00,
2013-03-05 18:45:00,40.1,24.4,29.89,ESE,106,0.0,0.0,53,0.00,,CLR,0.00,VWS V14.01,2013-03-05 23:45:00,
2013-03-05 18:50:00,40.1,24.4,29.89,ESE,106,0.0,0.0,53,0.00,,CLR,0.00,VWS V14.01,2013-03-05 23:50:00,
2013-03-05 18:55:00,40.1,24.4,29.89,ESE,106,0.0,0.0,53,0.00,,CLR,0.00,VWS V14.01,2013-03-05 23:55:00,
2013-03-05 19:00:00,39.9,24.2,29.89,ESE,106,0.0,0.0,53,0.00,,CLR,0.00,VWS V14.01,2013-03-06 00:00:00,
2013-03-05 19:05:00,39.6,24.3,29.89,ESE,106,0.0,0.0,54,0.00,,CLR,0.00,VWS V14.01,2013-03-06 00:05:00,
2013-03-05 19:10:00,39.5,24.2,29.89,ESE,106,0.0,0.0,54,0.00,,CLR,0.00,VWS V14.01,2013-03-06 00:10:00,
2013-03-05 19:15:00,39.5,24.2,29.89,ESE,106,0.0,0.0,54,0.00,,CLR,0.00,VWS V14.01,2013-03-06 00:15:00,
2013-03-05 19:20:00,39.5,24.2,29.89,ESE,106,0.0,0.0,54,0.00,,CLR,0.00,VWS V14.01,2013-03-06 00:20:00,
2013-03-05 19:25:00,39.2,24.4,29.89,ESE,106,0.0,1.0,55,0.00,,CLR,0.00,VWS V14.01,2013-03-06 00:25:00,
2013-03-05 19:30:00,38.8,24.5,29.89,ESE,106,0.0,1.0,56,0.00,,CLR,0.00,VWS V14.01,2013-03-06 00:30:00,
2013-03-05 19:35:00,38.0,24.1,29.88,ESE,106,0.0,1.0,57,0.00,,CLR,0.00,VWS V14.01,2013-03-06 00:35:00,
2013-03-05 19:40:00,37.3,23.9,29.88,ESE,106,0.0,0.0,58,0.00,,CLR,0.00,VWS V14.01,2013-03-06 00:40:00,
2013-03-05 19:45:00,36.8,23.8,29.88,ESE,106,0.0,0.0,59,0.00,,CLR,0.00,VWS V14.01,2013-03-06 00:45:00,
2013-03-05 19:50:00,36.5,24.0,29.88,ESE,106,0.0,0.0,60,0.00,,CLR,0.00,VWS V14.01,2013-03-06 00:50:00,
2013-03-05 19:55:00,36.5,24.0,29.88,ESE,106,0.0,0.0,60,0.00,,CLR,0.00,VWS V14.01,2013-03-06 00:55:00,
2013-03-05 20:00:00,36.3,24.1,29.88,ESE,105,3.0,5.0,61,0.00,,CLR,0.00,VWS V14.01,2013-03-06 01:00:00,
2013-03-05 20:05:00,36.3,24.1,29.88,East,94,0.0,0.0,61,0.00,,CLR,0.00,VWS V14.01,2013-03-06 01:05:00,
2013-03-05 20:10:00,36.2,24.5,29.88,East,94,1.0,1.0,62,0.00,,CLR,0.00,VWS V14.01,2013-03-06 01:10:00,
2013-03-05 20:15:00,35.8,24.5,29.88,East,93,1.0,2.0,63,0.00,,CLR,0.00,VWS V14.01,2013-03-06 01:15:00,
2013-03-05 20:20:00,35.8,25.2,29.88,East,83,0.0,5.0,65,0.00,,CLR,0.00,VWS V14.01,2013-03-06 01:20:00,
2013-03-05 20:25:00,36.5,26.2,29.88,ESE,105,1.0,6.0,66,0.00,,CLR,0.00,VWS V14.01,2013-03-06 01:25:00,
2013-03-05 20:30:00,37.0,26.3,29.88,ESE,111,0.0,0.0,65,0.00,,CLR,0.00,VWS V14.01,2013-03-06 01:30:00,
2013-03-05 20:35:00,37.3,27.0,29.89,ESE,115,4.0,4.0,66,0.00,,CLR,0.00,VWS V14.01,2013-03-06 01:35:00,
2013-03-05 20:40:00,37.6,26.9,29.89,ESE,103,1.0,2.0,65,0.00,,CLR,0.00,VWS V14.01,2013-03-06 01:40:00,
2013-03-05 20:45:00,37.5,26.8,29.89,East,80,0.0,2.0,65,0.00,,CLR,0.00,VWS V14.01,2013-03-06 01:45:00,
2013-03-05 20:50:00,37.2,26.9,29.89,East,91,0.0,1.0,66,0.00,,CLR,0.00,VWS V14.01,2013-03-06 01:50:00,
2013-03-05 20:55:00,36.6,26.7,29.89,ENE,61,0.0,0.0,67,0.00,,SCT050,0.00,VWS V14.01,2013-03-06 01:55:00,
2013-03-05 21:00:00,36.3,26.8,29.89,ENE,76,0.0,1.0,68,0.00,,SCT050,0.00,VWS V14.01,2013-03-06 02:00:00,
2013-03-05 21:05:00,36.2,26.7,29.90,East,91,2.0,2.0,68,0.00,,SCT050,0.00,VWS V14.01,2013-03-06 02:05:00,
2013-03-05 21:10:00,36.2,26.7,29.90,East,97,0.0,3.0,68,0.00,,SCT050,0.00,VWS V14.01,2013-03-06 02:10:00,
2013-03-05 21:15:00,36.0,26.5,29.90,ESE,116,0.0,2.0,68,0.00,,SCT050,0.00,VWS V14.01,2013-03-06 02:15:00,
2013-03-05 21:20:00,35.9,26.4,29.89,East,100,1.0,1.0,68,0.00,,CLR,0.00,VWS V14.01,2013-03-06 02:20:00,
2013-03-05 21:25:00,35.6,26.1,29.89,East,100,0.0,0.0,68,0.00,,SCT050,0.00,VWS V14.01,2013-03-06 02:25:00,
2013-03-05 21:30:00,35.3,25.8,29.89,East,100,0.0,0.0,68,0.00,,SCT050,0.00,VWS V14.01,2013-03-06 02:30:00,
2013-03-05 21:35:00,34.9,25.8,29.89,East,100,0.0,1.0,69,0.00,,FEW050,0.00,VWS V14.01,2013-03-06 02:35:00,
2013-03-05 21:40:00,34.6,25.5,29.89,East,100,0.0,0.0,69,0.00,,FEW050,0.00,VWS V14.01,2013-03-06 02:40:00,
2013-03-05 21:45:00,34.3,25.5,29.89,East,100,0.0,1.0,70,0.00,,FEW050,0.00,VWS V14.01,2013-03-06 02:45:00,
2013-03-05 21:50:00,34.0,25.3,29.89,East,100,1.0,1.0,70,0.00,,FEW050,0.00,VWS V14.01,2013-03-06 02:50:00,
2013-03-05 21:55:00,34.0,25.3,29.89,East,100,0.0,1.0,70,0.00,,FEW050,0.00,VWS V14.01,2013-03-06 02:55:00,
2013-03-05 22:00:00,33.8,25.1,29.89,East,100,0.0,1.0,70,0.00,,BKN050,0.00,VWS V14.01,2013-03-06 03:00:00,
2013-03-05 22:05:00,33.8,25.4,29.88,East,100,0.0,0.0,71,0.00,,BKN050,0.00,VWS V14.01,2013-03-06 03:05:00,
2013-03-05 22:10:00,33.7,25.3,29.88,East,100,0.0,0.0,71,0.00,,BKN050,0.00,VWS V14.01,2013-03-06 03:10:00,
2013-03-05 22:15:00,33.4,25.0,29.88,East,100,0.0,0.0,71,0.00,,BKN050,0.00,VWS V14.01,2013-03-06 03:15:00,
2013-03-05 22:20:00,33.2,25.2,29.88,East,100,0.0,1.0,72,0.00,,BKN050,0.00,VWS V14.01,2013-03-06 03:20:00,
2013-03-05 22:25:00,33.1,25.1,29.88,East,100,0.0,1.0,72,0.00,,BKN050,0.00,VWS V14.01,2013-03-06 03:25:00,
2013-03-05 22:30:00,32.9,24.9,29.88,East,100,0.0,1.0,72,0.00,,BKN050,0.00,VWS V14.01,2013-03-06 03:30:00,
2013-03-05 22:35:00,32.8,25.1,29.87,East,100,0.0,0.0,73,0.00,,BKN050,0.00,VWS V14.01,2013-03-06 03:35:00,
2013-03-05 22:40:00,32.5,24.8,29.87,East,100,0.0,1.0,73,0.00,,CLR,0.00,VWS V14.01,2013-03-06 03:40:00,
2013-03-05 22:45:00,32.4,25.0,29.87,East,100,0.0,1.0,74,0.00,,CLR,0.00,VWS V14.01,2013-03-06 03:45:00,
2013-03-05 22:50:00,32.2,25.2,29.86,East,100,0.0,0.0,75,0.00,,CLR,0.00,VWS V14.01,2013-03-06 03:50:00,
2013-03-05 22:55:00,31.9,24.9,29.86,East,100,0.0,0.0,75,0.00,,FEW050,0.00,VWS V14.01,2013-03-06 03:55:00,
2013-03-05 23:00:00,32.1,25.1,29.86,East,98,0.0,1.0,75,0.00,,FEW050,0.00,VWS V14.01,2013-03-06 04:00:00,
2013-03-05 23:05:00,32.1,25.1,29.86,East,98,0.0,1.0,75,0.00,,FEW050,0.00,VWS V14.01,2013-03-06 04:05:00,
2013-03-05 23:10:00,32.2,25.2,29.86,ENE,72,0.0,4.0,75,0.00,,FEW050,0.00,VWS V14.01,2013-03-06 04:10:00,
2013-03-05 23:15:00,32.2,25.2,29.86,ENE,65,1.0,2.0,75,0.00,,FEW050,0.00,VWS V14.01,2013-03-06 04:15:00,
2013-03-05 23:20:00,32.4,25.7,29.85,East,83,0.0,4.0,76,0.00,,FEW050,0.00,VWS V14.01,2013-03-06 04:20:00,
2013-03-05 23:25:00,32.5,25.5,29.85,ENE,60,0.0,2.0,75,0.00,,FEW050,0.00,VWS V14.01,2013-03-06 04:25:00,
2013-03-05 23:30:00,32.5,25.5,29.85,East,89,0.0,2.0,75,0.00,,FEW050,0.00,VWS V14.01,2013-03-06 04:30:00,
2013-03-05 23:35:00,32.7,25.7,29.85,ESE,102,0.0,2.0,75,0.00,,CLR,0.00,VWS V14.01,2013-03-06 04:35:00,
2013-03-05 23:40:00,32.8,25.8,29.85,ENE,66,0.0,1.0,75,0.00,,CLR,0.00,VWS V14.01,2013-03-06 04:40:00,
2013-03-05 23:45:00,32.8,25.8,29.85,East,79,0.0,1.0,75,0.00,,CLR,0.00,VWS V14.01,2013-03-06 04:45:00,
2013-03-05 23:50:00,32.8,25.8,29.86,East,79,0.0,1.0,75,0.00,,CLR,0.00,VWS V14.01,2013-03-06 04:50:00,
2013-03-05 23:55:00,32.8,25.8,29.86,East,83,0.0,4.0,75,0.00,,CLR,0.00,VWS V14.01,2013-03-06 04:55:00,